| time (UTC) | temp F | wind direction | speed MPH | gust MPH | rain 1hr in | rain 24hr in | rain mn in | humidity % | barometer mb |
| 20260831214508 | 60 | 210 | 2.0 | 5.0 | 0.00 | 0.26 | 0.26 | 80 | 1018.7 |
| 20260831213006 | 60 | 208 | 2.0 | 4.0 | 0.00 | 0.26 | 0.26 | 78 | 1018.6 |
| 20260831211506 | 61 | 208 | 0.0 | 4.0 | 0.00 | 0.26 | 0.26 | 76 | 1018.3 |
| 20260831210007 | 61 | 218 | 2.0 | 5.0 | 0.00 | 0.26 | 0.26 | 75 | 1018.4 |
| 20260831205953 | 62 | 203 | 2.0 | 4.0 | 0.00 | 0.26 | 0.26 | 74 | 1019.3 |
| 20260831204506 | 62 | 217 | 1.0 | 8.0 | 0.00 | 0.26 | 0.26 | 73 | 1018.2 |
| 20260831203002 | 63 | 221 | 4.0 | 9.0 | 0.00 | 0.26 | 0.26 | 72 | 1018.1 |
| 20260831201600 | 63 | 208 | 2.0 | 10.0 | 0.00 | 0.26 | 0.26 | 71 | 1017.8 |
| 20260831200059 | 64 | 254 | 3.0 | 10.0 | 0.00 | 0.26 | 0.26 | 69 | 1017.5 |
| 20260831195831 | 65 | 203 | 3.0 | 6.0 | 0.00 | 0.26 | 0.26 | 67 | 1018.5 |
| 20260831194651 | 64 | 250 | 1.0 | 14.0 | 0.00 | 0.26 | 0.26 | 67 | 1017.3 |
| 20260831193057 | 65 | 279 | 2.0 | 7.0 | 0.00 | 0.26 | 0.26 | 67 | 1017.2 |
| 20260831191555 | 66 | 209 | 1.0 | 8.0 | 0.00 | 0.26 | 0.26 | 67 | 1017.0 |
| 20260831190105 | 66 | 286 | 4.0 | 12.0 | 0.00 | 0.26 | 0.26 | 65 | 1016.9 |
| 20260831185903 | 66 | 270 | 3.0 | 8.0 | 0.00 | 0.26 | 0.26 | 66 | 1017.7 |
| 20260831184550 | 65 | 216 | 2.0 | 6.0 | 0.00 | 0.26 | 0.26 | 67 | 1016.2 |
| 20260831183051 | 65 | 213 | 4.0 | 9.0 | 0.00 | 0.26 | 0.26 | 68 | 1016.0 |
| 20260831181549 | 65 | 274 | 0.0 | 2.0 | 0.00 | 0.26 | 0.26 | 68 | 1015.9 |
| 20260831180048 | 66 | 274 | 0.0 | 3.0 | 0.00 | 0.26 | 0.26 | 66 | 1015.8 |
| 20260831175840 | 67 | 0.0 | 1.0 | 0.00 | 0.26 | 0.26 | 66 | 1016.7 | |
| 20260831174551 | 66 | 247 | 1.0 | 9.0 | 0.00 | 0.26 | 0.26 | 66 | 1015.4 |
| 20260831173046 | 68 | 209 | 1.0 | 6.0 | 0.00 | 0.26 | 0.26 | 64 | 1015.3 |
| 20260831171548 | 68 | 205 | 3.0 | 14.0 | 0.00 | 0.26 | 0.26 | 62 | 1015.2 |
| 20260831170125 | 70 | 240 | 1.0 | 10.0 | 0.00 | 0.26 | 0.26 | 63 | 1015.2 |
| 20260831165804 | 71 | 225 | 2.0 | 6.0 | 0.00 | 0.26 | 0.26 | 62 | 1016.5 |
| 20260831164544 | 70 | 282 | 3.0 | 10.0 | 0.00 | 0.26 | 0.26 | 63 | 1015.2 |
| 20260831163045 | 71 | 212 | 3.0 | 12.0 | 0.00 | 0.26 | 0.26 | 63 | 1015.0 |
| 20260831161543 | 71 | 282 | 3.0 | 13.0 | 0.00 | 0.26 | 0.26 | 61 | 1015.0 |
| 20260831160043 | 70 | 213 | 3.0 | 7.0 | 0.00 | 0.26 | 0.26 | 62 | 1015.0 |
| 20260831155855 | 71 | 225 | 2.0 | 4.0 | 0.00 | 0.26 | 0.26 | 61 | 1016.2 |
| 20260831154549 | 71 | 298 | 4.0 | 14.0 | 0.00 | 0.26 | 0.26 | 60 | 1015.0 |
| 20260831153041 | 72 | 219 | 4.0 | 13.0 | 0.00 | 0.26 | 0.26 | 61 | 1014.8 |
| 20260831151541 | 73 | 265 | 1.0 | 14.0 | 0.00 | 0.26 | 0.26 | 65 | 1014.9 |
| 20260831150041 | 73 | 191 | 6.0 | 11.0 | 0.00 | 0.26 | 0.26 | 64 | 1015.0 |
| 20260831145803 | 74 | 203 | 8.0 | 10.0 | 0.00 | 0.26 | 0.26 | 62 | 1016.6 |
| 20260831144539 | 73 | 219 | 5.0 | 10.0 | 0.00 | 0.26 | 0.26 | 63 | 1015.3 |
| 20260831143039 | 73 | 222 | 6.0 | 12.0 | 0.00 | 0.26 | 0.26 | 62 | 1015.2 |
| 20260831141540 | 74 | 207 | 8.0 | 14.0 | 0.00 | 0.26 | 0.26 | 61 | 1015.3 |
| 20260831140136 | 73 | 198 | 3.0 | 9.0 | 0.00 | 0.26 | 0.26 | 65 | 1015.3 |
| 20260831135832 | 73 | 248 | 2.0 | 2.0 | 0.00 | 0.26 | 0.26 | 66 | 1016.8 |
| 20260831134536 | 72 | 277 | 4.0 | 10.0 | 0.00 | 0.26 | 0.26 | 65 | 1015.5 |
| 20260831133036 | 70 | 225 | 5.0 | 16.0 | 0.00 | 0.26 | 0.26 | 66 | 1015.6 |
| 20260831131533 | 70 | 207 | 2.0 | 16.0 | 0.00 | 0.26 | 0.26 | 65 | 1015.7 |
| 20260831130033 | 72 | 243 | 8.0 | 17.0 | 0.00 | 0.26 | 0.26 | 61 | 1015.6 |
| 20260831125804 | 74 | 203 | 5.0 | 11.0 | 0.00 | 0.26 | 0.26 | 63 | 1017.0 |
| 20260831124536 | 73 | 293 | 6.0 | 16.0 | 0.00 | 0.26 | 0.26 | 63 | 1015.6 |
| 20260831123030 | 73 | 259 | 3.0 | 15.0 | 0.00 | 0.26 | 0.26 | 66 | 1015.6 |
| 20260831121529 | 72 | 199 | 5.0 | 15.0 | 0.00 | 0.26 | 0.26 | 66 | 1015.5 |
| 20260831120031 | 72 | 200 | 3.0 | 21.0 | 0.00 | 0.26 | 0.26 | 68 | 1015.6 |
| 20260831115843 | 72 | 248 | 1.0 | 2.0 | 0.00 | 0.26 | 0.26 | 71 | 1016.9 |
| 20260831114523 | 71 | 205 | 7.0 | 17.0 | 0.00 | 0.26 | 0.26 | 69 | 1015.4 |
| 20260831113023 | 71 | 198 | 3.0 | 11.0 | 0.00 | 0.26 | 0.26 | 69 | 1015.6 |
| 20260831111528 | 69 | 226 | 2.0 | 15.0 | 0.00 | 0.26 | 0.26 | 75 | 1015.6 |
| 20260831110018 | 69 | 290 | 2.0 | 9.0 | 0.00 | 0.26 | 0.26 | 76 | 1015.5 |
| 20260831105813 | 68 | 270 | 2.0 | 3.0 | 0.00 | 0.26 | 0.26 | 78 | 1016.8 |
| 20260831104522 | 67 | 267 | 1.0 | 9.0 | 0.00 | 0.26 | 0.26 | 79 | 1015.5 |
| 20260831103035 | 67 | 252 | 1.0 | 4.0 | 0.00 | 0.26 | 0.26 | 77 | 1015.5 |
| 20260831101512 | 67 | 278 | 1.0 | 11.0 | 0.00 | 0.26 | 0.26 | 80 | 1015.6 |
| 20260831100011 | 65 | 217 | 4.0 | 12.0 | 0.00 | 0.26 | 0.26 | 82 | 1015.7 |
| 20260831095921 | 66 | 293 | 1.0 | 2.0 | 0.00 | 0.26 | 0.26 | 83 | 1017.2 |
| 20260831094515 | 65 | 216 | 2.0 | 10.0 | 0.00 | 0.26 | 0.26 | 83 | 1015.7 |
| 20260831093005 | 64 | 229 | 2.0 | 16.0 | 0.00 | 0.26 | 0.26 | 86 | 1015.7 |
| 20260831091504 | 63 | 276 | 1.0 | 11.0 | 0.00 | 0.26 | 0.26 | 89 | 1015.8 |
| 20260831090004 | 64 | 223 | 3.0 | 10.0 | 0.00 | 0.26 | 0.26 | 91 | 1015.8 |
| 20260831085848 | 64 | 203 | 1.0 | 3.0 | 0.00 | 0.26 | 0.26 | 92 | 1016.9 |
| 20260831084559 | 63 | 236 | 1.0 | 10.0 | 0.00 | 0.26 | 0.26 | 92 | 1015.6 |
| 20260831083058 | 63 | 240 | 1.0 | 8.0 | 0.00 | 0.26 | 0.26 | 93 | 1015.5 |
| 20260831081557 | 63 | 272 | 1.0 | 8.0 | 0.00 | 0.26 | 0.26 | 93 | 1015.2 |
| 20260831080105 | 63 | 225 | 3.0 | 11.0 | 0.00 | 0.26 | 0.26 | 93 | 1015.2 |
| 20260831075719 | 63 | 225 | 2.0 | 4.0 | 0.00 | 0.26 | 0.26 | 93 | 1016.6 |
| 20260831074552 | 62 | 269 | 2.0 | 9.0 | 0.00 | 0.26 | 0.26 | 94 | 1015.3 |
| 20260831073051 | 62 | 221 | 3.0 | 11.0 | 0.00 | 0.26 | 0.26 | 93 | 1015.1 |
| 20260831071549 | 61 | 218 | 2.0 | 5.0 | 0.00 | 0.26 | 0.26 | 93 | 1015.0 |
| 20260831070048 | 61 | 210 | 2.0 | 4.0 | 0.00 | 0.26 | 0.26 | 93 | 1014.9 |
| 20260831065750 | 61 | 225 | 3.0 | 4.0 | 0.00 | 0.26 | 0.26 | 93 | 1016.1 |
| 20260831064548 | 60 | 194 | 2.0 | 6.0 | 0.00 | 0.26 | 0.26 | 93 | 1014.8 |
| 20260831063048 | 60 | 208 | 1.0 | 4.0 | 0.00 | 0.26 | 0.26 | 93 | 1014.8 |
| 20260831061547 | 60 | 192 | 1.0 | 5.0 | 0.01 | 0.26 | 0.26 | 93 | 1014.6 |
| 20260831060046 | 60 | 209 | 2.0 | 4.0 | 0.02 | 0.26 | 0.26 | 93 | 1014.4 |
| 20260831055720 | 60 | 203 | 2.0 | 3.0 | 0.02 | 0.26 | 0.26 | 92 | 1015.8 |
| 20260831054545 | 60 | 213 | 0.0 | 2.0 | 0.02 | 0.26 | 0.26 | 92 | 1014.4 |
| 20260831053045 | 59 | 213 | 0.0 | 3.0 | 0.04 | 0.26 | 0.26 | 92 | 1014.3 |
| 20260831051546 | 59 | 213 | 0.0 | 2.0 | 0.04 | 0.25 | 0.25 | 92 | 1014.1 |
| 20260831050043 | 59 | 225 | 0.0 | 3.0 | 0.06 | 0.24 | 0.24 | 92 | 1014.1 |
| 20260831045817 | 60 | 180 | 1.0 | 4.0 | 0.09 | 0.24 | 0.24 | 92 | 1015.5 |
| 20260831044544 | 59 | 147 | 1.0 | 4.0 | 0.12 | 0.24 | 0.24 | 92 | 1013.9 |
| 20260831043042 | 59 | 184 | 1.0 | 5.0 | 0.22 | 0.22 | 0.22 | 92 | 1014.1 |
| 20260831041559 | 59 | 192 | 2.0 | 5.0 | 0.21 | 0.21 | 0.21 | 92 | 1014.1 |
| 20260831040042 | 59 | 194 | 2.0 | 4.0 | 0.19 | 0.19 | 0.19 | 91 | 1014.4 |
| 20260831035747 | 59 | 203 | 5.0 | 7.0 | 0.15 | 0.15 | 0.15 | 92 | 1016.1 |
| 20260831034542 | 59 | 211 | 6.0 | 17.0 | 0.13 | 0.13 | 0.13 | 92 | 1014.6 |
| 20260831033039 | 56 | 221 | 0.0 | 0.0 | 0.00 | 0.00 | 0.00 | 90 | 1012.5 |
| 20260831031543 | 56 | 221 | 0.0 | 0.0 | 0.00 | 0.00 | 0.00 | 89 | 1012.3 |
| 20260831030036 | 56 | 221 | 0.0 | 0.0 | 0.00 | 0.00 | 0.00 | 89 | 1012.6 |
| 20260831025657 | 57 | 0.0 | 0.0 | 0.00 | 0.00 | 0.00 | 89 | 1014.6 | |
| 20260831024534 | 56 | 221 | 0.0 | 0.0 | 0.00 | 0.00 | 0.00 | 89 | 1013.0 |
| 20260831023033 | 56 | 221 | 0.0 | 0.0 | 0.00 | 0.00 | 0.00 | 88 | 1013.0 |
| 20260831021533 | 56 | 221 | 0.0 | 0.0 | 0.00 | 0.00 | 0.00 | 88 | 1012.8 |
| 20260831020031 | 56 | 221 | 0.0 | 0.0 | 0.00 | 0.00 | 0.00 | 88 | 1013.2 |
| 20260831015729 | 57 | 0.0 | 0.0 | 0.00 | 0.00 | 0.00 | 88 | 1015.3 | |
| 20260831014528 | 56 | 221 | 0.0 | 0.0 | 0.00 | 0.00 | 0.00 | 88 | 1013.7 |
| 20260831013027 | 57 | 221 | 0.0 | 0.0 | 0.00 | 0.00 | 0.00 | 88 | 1013.7 |
| 20260831011526 | 57 | 221 | 0.0 | 0.0 | 0.00 | 0.00 | 0.00 | 87 | 1013.7 |
| 20260831010032 | 57 | 221 | 0.0 | 0.0 | 0.00 | 0.00 | 0.00 | 87 | 1014.1 |
| 20260831005658 | 58 | 0.0 | 0.0 | 0.00 | 0.00 | 0.00 | 87 | 1015.7 | |
| 20260831004521 | 57 | 221 | 0.0 | 0.0 | 0.00 | 0.00 | 0.00 | 87 | 1014.1 |
| 20260831003021 | 57 | 221 | 0.0 | 0.0 | 0.00 | 0.00 | 0.00 | 87 | 1014.3 |
| 20260831001519 | 58 | 221 | 0.0 | 0.0 | 0.00 | 0.00 | 0.00 | 86 | 1014.4 |
| 20260831000023 | 58 | 221 | 0.0 | 0.0 | 0.00 | 0.00 | 0.00 | 85 | 1014.4 |
| 20260830235728 | 59 | 0.0 | 0.0 | 0.00 | 0.00 | 0.00 | 85 | 1016.0 | |
| 20260830234529 | 58 | 221 | 0.0 | 0.0 | 0.00 | 0.00 | 0.00 | 85 | 1014.5 |
| 20260830233013 | 59 | 221 | 0.0 | 0.0 | 0.00 | 0.00 | 0.00 | 84 | 1014.5 |
| 20260830231511 | 59 | 221 | 0.0 | 0.0 | 0.00 | 0.00 | 0.00 | 84 | 1014.6 |
| 20260830230018 | 59 | 221 | 0.0 | 0.0 | 0.00 | 0.00 | 0.00 | 83 | 1014.7 |
| 20260830225755 | 60 | 0.0 | 0.0 | 0.00 | 0.00 | 0.00 | 83 | 1016.2 | |
| 20260830224506 | 60 | 221 | 0.0 | 0.0 | 0.00 | 0.00 | 0.00 | 82 | 1014.6 |
| 20260830223004 | 61 | 221 | 0.0 | 0.0 | 0.00 | 0.00 | 0.00 | 82 | 1014.7 |
| 20260830221504 | 61 | 221 | 0.0 | 0.0 | 0.00 | 0.00 | 0.00 | 81 | 1014.6 |
| 20260830220100 | 62 | 221 | 0.0 | 0.0 | 0.00 | 0.00 | 0.00 | 79 | 1014.7 |
| 20260830215700 | 63 | 0.0 | 0.0 | 0.00 | 0.00 | 0.00 | 79 | 1016.3 | |
| 20260830214600 | 63 | 221 | 0.0 | 0.0 | 0.00 | 0.00 | 0.00 | 78 | 1014.7 |